Flag for United Kingdom Weather past 2 weeks in Cheltenham, England, United Kingdom

Now
34 °F

Chilly.


Feels Like: 27 °F
Forecast: 33 / 50 °F
Wind: 7 mph from West

Location: Little Rissington

Current Time: Mar 5, 2015 at 4:48:40 AM

Latest Report: Mar 5, 2015 at 4:00 AM


Visibility: 11 mi

Pressure: 30.69 "Hg

Humidity: 83%

Dew point: 29 °F

Location of CheltenhamLocation

Historic Weather in Cheltenham — Graph

°F

Cheltenham temperature yesterday

Maximum temperature yesterday: 48 °F (at 1:00 PM)
Minimum temperature yesterday: 34 °F (at 5:00 AM)
Average temperature yesterday: 40 °F

Past Weeks' High & Low Weather Summary

 TemperatureHumidityPressure
High51 °F (Feb 25, 3:00 PM)100% (Feb 19, 1:00 PM)30.70 "Hg (Feb 19, 1:00 PM)
Low28 °F (Feb 22, 6:00 AM)44% (Mar 2, 2:00 PM)29.18 "Hg (Feb 22, 10:00 PM)
Average40 °F87%29.83 "Hg
* Reported Feb 18 3:00 AM — Mar 5 3:00 AM, Cheltenham, Weather by CustomWeather, © 2015

Note: Actual official high and low records may vary slightly from our data, if they occured in-between our weather recording intervals... More about our weather records

Advertising

Cheltenham weather history for previous 24 hours

 ConditionsComfort  
Time TempWeatherWind HumidityBarometerVisibility
3:00 AM
Thu, Mar 5
33 °FChilly.6 mph84%30.70 "Hg10 mi
2:00 AM34 °FChilly.8 mph83%30.70 "Hg10 mi
1:00 AM33 °FChilly.7 mph84%30.70 "Hg9 mi
12:00 AM33 °FChilly.7 mph87%30.70 "Hg9 mi
11:00 PM
Wed, Mar 4
34 °FChilly.8 mph85%30.68 "Hg9 mi
10:00 PM35 °FChilly.5 mph82%30.68 "Hg9 mi
9:00 PM36 °FChilly.5 mph79%30.65 "Hg10 mi
8:00 PM37 °FChilly.9 mph78%30.63 "Hg9 mi
7:00 PM37 °FChilly.10 mph75%30.60 "Hg11 mi
6:00 PM41 °FQuite cool.9 mph67%30.57 "Hg17 mi
5:00 PM44 °FQuite cool.14 mph59%30.53 "Hg19 mi
4:00 PM47 °FCool.15 mph57%30.50 "Hg19 mi
3:00 PM47 °FCool.21 mph54%30.47 "Hg22 mi
2:00 PM47 °FCool.22 mph55%30.45 "Hg19 mi
1:00 PM48 °FCool.23 mph56%30.43 "Hg19 mi
12:00 PM46 °FCool.22 mph60%30.41 "Hg19 mi
11:00 AM45 °FCool.20 mph65%30.39 "Hg16 mi
10:00 AM42 °FQuite cool.14 mph72%30.37 "Hg15 mi
9:00 AM39 °FChilly.13 mph78%30.34 "Hg10 mi
8:00 AM36 °FChilly.16 mph84%30.31 "Hg9 mi
7:00 AM35 °FChilly.20 mph84%30.27 "Hg10 mi
6:00 AM34 °FChilly.14 mph85%30.25 "Hg10 mi
5:00 AM34 °FChilly.10 mph86%30.24 "Hg11 mi
4:00 AM35 °FChilly.14 mph84%30.20 "Hg12 mi
Weather by CustomWeather, © 2015

See weather overviewHow to use our weather pages